EW4120 Weather Reports


time (UTC)temp
F
wind
direction
speed
knots
gust
knots
rain 1hr
in
rain 24hr
in
rain mn
in
humidity
%
barometer
mb
20260502220537 63 180 0.9 3.5 0.00 0.00 0.00 48 1011.4
20260502215537 63 0.0 1.7 0.00 0.00 0.00 47 1011.4
20260502214517 64 0.0 0.9 0.00 0.00 0.00 46 1011.3
20260502213517 63 0.0 1.7 0.00 0.00 0.00 50 1011.3
20260502212517 63 180 0.9 2.6 0.00 0.00 0.00 45 1011.2
20260502211517 63 0.0 1.7 0.00 0.00 0.00 45 1011.2
20260502210537 62 0.0 1.7 0.00 0.00 0.00 45 1011.1
20260502205658 62 0.0 1.7 0.00 0.00 0.00 47 1011.2
20260502204517 62 180 0.9 4.3 0.00 0.00 0.00 47 1011.3
20260502203517 61 0.0 2.6 0.00 0.00 0.00 50 1011.3
20260502202517 60 0.0 1.7 0.00 0.00 0.00 50 1011.4
20260502201517 60 180 0.9 2.6 0.00 0.00 0.00 45 1011.5
20260502200537 60 180 0.9 3.5 0.00 0.00 0.00 47 1011.6
20260502195537 59 0.0 0.9 0.00 0.00 0.00 47 1012.0
20260502194517 59 180 0.9 3.5 0.00 0.00 0.00 43 1012.1
20260502193517 59 0.0 2.6 0.00 0.00 0.00 48 1012.2
20260502192537 59 180 0.9 3.5 0.00 0.00 0.00 48 1012.3
20260502191517 59 180 0.9 4.3 0.00 0.00 0.00 46 1012.4
20260502190517 59 180 0.9 2.6 0.00 0.00 0.00 49 1012.4
20260502185617 58 180 1.7 5.2 0.00 0.00 0.00 46 1012.6
20260502184517 57 180 0.9 2.6 0.00 0.00 0.00 52 1012.7
20260502183517 57 0.0 1.7 0.00 0.00 0.00 53 1012.8
20260502182517 56 0.0 1.7 0.00 0.00 0.00 52 1012.7
20260502181517 56 0.0 1.7 0.00 0.00 0.00 52 1012.7
20260502180537 56 180 0.9 2.6 0.00 0.00 0.00 51 1012.5
20260502170517 55 180 0.9 6.1 0.00 0.00 0.00 54 1013.1
20260502163537 55 180 0.9 2.6 0.00 0.00 0.00 54 1013.7
20260502162537 55 180 0.9 3.5 0.00 0.00 0.00 57 1013.9
20260502161537 55 180 0.9 3.5 0.00 0.00 0.00 60 1013.8
20260502160516 0 0.0 0.0 0.00 0.00 0.00
20260502152016 0 0.0 0.0 0.00 0.00 0.00
20260502151016 0 0.0 0.0 0.00 0.00 0.00
20260502150534 0 0.0 0.0 0.00 0.00 0.00
20260502123722 0 0.0 0.0 0.00 0.00 0.00
20260502123111 0 0.0 0.0 0.00 0.00 0.00
20260502122056 0 0.0 0.0 0.00 0.00 0.00
20260502121148 0 0.0 0.0 0.00 0.00 0.00
20260502120602 0 0.0 0.0 0.00 0.00 0.00
20260502115536 0 0.0 0.0 0.00 0.00 0.00
20260502114549 0 0.0 0.0 0.00 0.00 0.00
20260502114043 0 0.0 0.0 0.00 0.00 0.00
20260502113516 0 0.0 0.0 0.00 0.00 0.00
20260502112556 0 0.0 0.0 0.00 0.00 0.00
20260502112014 0 0.0 0.0 0.00 0.00 0.00 78
20260502111522 0 45 1.7 5.2 0.00 0.00 0.00 78
20260502110616 53 0.0 2.6 0.00 0.00 0.00 80 1013.0
20260502105516 52 0.0 2.6 0.00 0.00 0.00 82 1013.1
20260502104516 52 0.0 0.9 0.00 0.00 0.00 86 1012.9
20260502103516 52 0.0 0.0 0.00 0.00 0.00 88 1012.9
20260502102516 51 0.0 0.9 0.00 0.00 0.00 89 1013.2
20260502101516 51 0.0 0.0 0.00 0.00 0.00 91 1013.2
20260502100536 51 0.0 0.0 0.00 0.00 0.00 90 1013.3
20260502091516 50 0.0 0.0 0.00 0.00 0.00 94 1013.6
20260502090536 50 0.0 0.0 0.00 0.00 0.00 94 1013.4
20260502071516 51 0.0 0.0 0.00 0.00 0.00 92 1012.2
20260502070556 51 0.0 0.0 0.00 0.00 0.00 92 1012.3
20260502065516 51 0.0 0.0 0.00 0.00 0.00 92 1012.3
20260502064536 51 0.0 0.0 0.00 0.00 0.00 92 1012.4
20260502063515 51 0.0 0.0 0.00 0.00 0.00 92 1012.6
20260502062618 52 0.0 0.0 0.00 0.00 0.00 92 1012.8
20260502060517 51 0.0 0.9 0.00 0.00 0.00 93 1012.9
20260502055517 50 0.0 1.7 0.00 0.00 0.00 94 1012.9
20260502054557 49 0.0 0.0 0.00 0.00 0.00 93 1012.4
20260502053537 49 0.0 0.0 0.00 0.00 0.00 93 1012.4
20260502052537 49 0.0 0.0 0.00 0.00 0.00 92 1012.3
20260502051557 49 0.0 0.0 0.00 0.00 0.00 93 1012.3
20260502050517 49 0.0 0.0 0.00 0.00 0.00 92 1012.5
20260502045537 49 0.0 0.0 0.00 0.00 0.00 92 1012.5
20260502044658 49 0.0 0.0 0.00 0.00 0.00 91 1012.6
20260502043517 49 0.0 0.0 0.00 0.00 0.00 91 1012.6
20260502042517 49 0.0 0.0 0.00 0.00 0.00 91 1012.5
20260502041517 50 0.0 0.0 0.00 0.00 0.00 91 1012.5
20260502040537 50 0.0 0.0 0.00 0.00 0.00 90 1012.6
20260502035516 50 0.0 0.0 0.00 0.00 0.00 90 1012.7
20260502034536 50 0.0 0.0 0.00 0.00 0.00 89 1012.7
20260502033536 51 0.0 0.0 0.00 0.00 0.00 89 1012.9
20260502032516 51 0.0 0.0 0.00 0.00 0.00 88 1012.8
20260502031516 51 0.0 0.0 0.00 0.00 0.00 88 1012.9
20260502030536 52 0.0 0.0 0.00 0.00 0.00 87 1012.9
20260502025556 52 0.0 0.0 0.00 0.00 0.00 87 1012.9
20260502024516 52 0.0 0.0 0.00 0.00 0.00 86 1013.0
20260502023516 53 0.0 0.0 0.00 0.00 0.00 85 1012.9
20260502022516 53 0.0 0.0 0.00 0.00 0.00 85 1012.9
20260502021516 54 0.0 0.0 0.00 0.00 0.00 84 1013.0
20260502020516 54 0.0 0.9 0.00 0.00 0.00 84 1012.9
20260502015515 55 0.0 0.0 0.00 0.00 0.00 84
20260502014518 55 0.0 0.0 0.00 0.00 0.00 83
20260502013538 55 0.0 2.6 0.00 0.00 0.00 83
20260502012517 56 0.0 0.0 0.00 0.00 0.00 81
20260502011558 56 293 0.9 2.6 0.00 0.00 0.00 81
20260502010517 57 0.0 0.0 0.00 0.00 0.00 80
20260502005538 57 0.0 3.5 0.00 0.00 0.00 79
20260502004517 57 0.0 0.9 0.00 0.00 0.00 78
20260502003517 58 0.0 3.5 0.00 0.00 0.00 77
20260502002558 58 0.0 2.6 0.00 0.00 0.00 76
20260502001557 58 0.0 2.6 0.00 0.00 0.00 75
20260502000658 58 0.0 2.6 0.00 0.00 0.00 74
20260501235517 59 315 0.9 1.7 0.00 0.00 0.00 72
20260501234618 60 293 0.9 3.5 0.00 0.00 0.00 70
20260501233517 61 315 0.9 5.2 0.00 0.00 0.00 68
20260501232517 61 315 0.9 6.1 0.00 0.00 0.00 66
20260501231537 63 315 0.9 3.5 0.00 0.00 0.00 64
20260501230558 64 315 0.9 4.3 0.00 0.00 0.00 61
20260501225537 65 293 0.9 3.5 0.00 0.00 0.00 60
20260501224517 66 315 0.9 5.2 0.00 0.00 0.00 60
20260501223517 67 315 0.9 4.3 0.00 0.00 0.00 58
20260501222657 68 315 0.9 5.2 0.00 0.00 0.00 56
20260501221517 68 315 0.9 3.5 0.00 0.00 0.00 58